Regional Weather Roundup
Issued by NWS

Home | Current Version | Previous Version | Text Only | Print | Product List | Glossary On
Versions: 1 2 3 4 5 6 7 8 9 10 11 12 13 14 15 16 17 18 19 20 21 22 23 24 25 26 27 28 29 30 31 32 33 34 35 36 37 38 39 40 41 42 43 44 45 46 47 48 49 50
000
ASUS44 KLIX 290910
RWRLA
LOUISIANA WEATHER ROUNDUP
NATIONAL WEATHER SERVICE NEW ORLEANS LA
300 AM CST MON DEC 29 2014

NOTE: "FAIR" INDICATES FEW OR NO CLOUDS BELOW 12,000 FEET WITH NO
      SIGNIFICANT WEATHER AND/OR OBSTRUCTIONS TO VISIBILITY.
      SKY/WX - SKY CONDITION AND SIGNIFICANT WEATHER.
      TMP - AIR TEMPERATURE.    DP   - DEWPOINT TEMPERATURE.
      RH  - RELATIVE HUMIDITY.  PRES - PRESSURE.
      HX  - HEAT INDEX.         WCI  - WIND CHILL INDEX.

*  THESE STATIONS ARE NOT NWS OR FAA STATIONS AND ARE NOT UNDER
   NWS QUALITY CONTROL.

LAZ040-048-061>063-065-066-069-291000-
SOUTHEAST LOUISIANA

CITY           SKY/WX    TMP DP  RH WIND       PRES   REMARKS
N.O. AUDUBON     N/A     58  54  86 MISG        N/A
N.O. INTL ARPT CLOUDY    57  55  93 NW5       30.06S
N.O. LAKEFRONT CLOUDY    59  55  87 N5        30.05R
N.O. DOWNTOWN* CLOUDY    57  54  88 W3        30.07R
SLIDELL        CLOUDY    56  54  93 CALM      30.04R
BATON ROUGE    CLOUDY    49  47  93 CALM      30.09R FOG
BOOTHVILLE     RAIN      58  57  97 E5        30.07R FOG
BELLE CHASSE   CLOUDY    58  56  93 CALM      30.05R
BOGALUSA*        N/A     54  51  90 NW6       30.08R
GALLIANO*      CLOUDY    61  59  94 MISG      30.06R
NEW ROADS*     CLOUDY    48  47  97 NW3       30.10R FOG
GONZALES*      CLOUDY    52  52 100 N5        30.08R
HAMMOND*       NOT AVBL
HOUMA*         CLOUDY    57  57  98 CALM      30.07R
PORT FOURCHON* CLOUDY    61  59  94 E12       30.07F

$$

LAZ041-044-053-054-291000-
SOUTHWEST LOUISIANA

CITY           SKY/WX    TMP DP  RH WIND       PRES   REMARKS
LAKE CHARLES   CLOUDY    48  47  96 N6        30.10S FOG
LAFAYETTE      CLOUDY    48  48 100 N7        30.09R FOG
PATTERSON      CLOUDY    54  52  94 NW6       30.09R
SALT POINT       N/A     63  53  70 VRB3      30.07R
NEW IBERIA     CLOUDY    50  48  93 N7        30.09S
CHENAULT AIRPK CLOUDY    47  47  99 N3        30.11S FOG

$$

LAZ027-028-291000-
CENTRAL LOUISIANA

CITY           SKY/WX    TMP DP  RH WIND       PRES   REMARKS
FORT POLK      CLOUDY    45  43  93 NW3       30.12R FOG
ALEXANDRIA INT CLOUDY    45  43  93 N5        30.10S
ALEXANDRIA     CLOUDY    44  43  96 VRB3      30.11S

$$

LAZ001-002-291000-
NORTHWEST LOUISIANA

CITY           SKY/WX    TMP DP  RH WIND       PRES   REMARKS
SHREVEPORT     CLOUDY    43  42  97 N7        30.14S FOG
BARKSDALE AFB  CLOUDY    42  42  99 NE5       30.15S
DTN SHREVEPORT CLOUDY    43  40  89 N5        30.15S

$$

LAZ014-016-291000-
NORTHEAST LOUISIANA

CITY           SKY/WX    TMP DP  RH WIND       PRES   REMARKS
MONROE         CLOUDY    42  32  67 N7        30.14F
TALLULAH       CLOUDY    44  42  93 NE7       30.12F

$$



USA.gov is the U.S. government's official web portal to all federal, state and local government web resources and services.